This is the latest recevied weather packets stored in our database for station/object K3RUP-1. If no packets are shown the sender has not sent any weather packets the latest 1 day(s).
| Time | Temp. | Humidity | Pressure | Rain* | Wind** | Luminosity | Snow |
|---|---|---|---|---|---|---|---|
| 1778024205 | 22.22° C | 61% | 1008.6 hPa | 0 mm | 0 m/s | 11 W/m² | - |
| 1778023903 | 22.22° C | 60% | 1008.5 hPa | 0 mm | 0 m/s | 12 W/m² | - |
| 1778023600 | 22.22° C | 59% | 1008.6 hPa | 0 mm | 0 m/s | 16 W/m² | - |
| 1778023298 | 22.78° C | 58% | 1008.6 hPa | 0 mm | 0 m/s | 21 W/m² | - |
| 1778022994 | 22.78° C | 58% | 1008.8 hPa | 0 mm | 0 m/s | 24 W/m² | - |
| 1778022693 | 22.78° C | 57% | 1008.7 hPa | 0 mm | 0 m/s | 25 W/m² | - |
| 1778022391 | 23.33° C | 57% | 1008.7 hPa | 0 mm | 0 m/s | 29 W/m² | - |
| 1778022087 | 23.33° C | 55% | 1009 hPa | 0 mm | 0 m/s | 32 W/m² | - |
| 1778021783 | 23.33° C | 54% | 1008.8 hPa | 0 mm | 0 m/s | 39 W/m² | - |
| 1778021480 | 23.89° C | 54% | 1008.6 hPa | 0 mm | 0 m/s | 45 W/m² | - |
| 1778021177 | 24.44° C | 52% | 1008.6 hPa | 0 mm | 0 m/s | 47 W/m² | - |
| 1778020874 | 25° C | 50% | 1008.7 hPa | 0 mm | 0 m/s | 46 W/m² | - |
| 1778020571 | 25° C | 48% | 1008.7 hPa | 0 mm | 0 m/s | 55 W/m² | - |
| 1778020267 | 25.56° C | 44% | 1008.6 hPa | 0 mm | 0 m/s | 50 W/m² | - |
| 1778019964 | 26.67° C | 40% | 1008.6 hPa | 0 mm | 0 m/s | 48 W/m² | - |
| 1778019660 | 26.67° C | 34% | 1008.6 hPa | 0 mm | 0 m/s | 49 W/m² | - |
| 1778019357 | 26.67° C | 32% | 1008.7 hPa | 0 mm | 0 m/s | 52 W/m² | - |
| 1778019053 | 27.22° C | 35% | 1008.6 hPa | 0 mm | 0 m/s | 60 W/m² | - |
| 1778018751 | 27.22° C | 34% | 1008.4 hPa | 0 mm | 0 m/s | 69 W/m² | - |
| 1778018448 | 27.22° C | 39% | 1008.7 hPa | 0 mm | 0.45 m/s, 237° | 97 W/m² | - |
| 1778018146 | 27.78° C | 35% | 1008.4 hPa | 0 mm | 0 m/s | 88 W/m² | - |
| 1778017844 | 27.78° C | 34% | 1008.7 hPa | 0 mm | 0 m/s | 85 W/m² | - |
| 1778017542 | 27.22° C | 33% | 1008.5 hPa | 0 mm | 0.45 m/s, 193° | 92 W/m² | - |
| 1778017238 | 27.22° C | 40% | 1008.4 hPa | 0 mm | 0 m/s | 97 W/m² | - |
| 1778016936 | 26.67° C | 42% | 1008.3 hPa | 0 mm | 0 m/s | 67 W/m² | - |
* Rain latest hour (hover to see other rain measurements)
** Current wind speed in m/s (hover to see current wind gust speed)